Weather History for State College, PA

Change the Weather History Date:

Sunday, October 23, 2011

  Actual Average Record
Temperature  
Mean Temperature 46 °F -  
Max Temperature 59 °F 58 °F 84 °F (1979)
Min Temperature 32 °F 37 °F 24 °F (1930)
Degree Days  
Heating Degree Days 20    
Moisture  
Dew Point 36 °F    
Average Humidity 84    
Maximum Humidity 100    
Minimum Humidity 44    
Precipitation  
Precipitation 0.00 in - - ()
Sea Level Pressure  
Sea Level Pressure 30.09 in    
Wind  
Wind Speed 1 mph (SW)    
Max Wind Speed 7 mph    
Max Gust Speed -    
Visibility 6 miles    
Events Fog    
Averages and records for this station are not official NWS values.
T = Trace of Precipitation, MM = Missing Value Source: NWS Daily Summary

Daily Weather History Graph

Daily Weather History Graph

Search for Another Location

Airport:

Trip Planner

Search our weather history database for the weather conditions in past years. The results will help you decide how hot, cold, wet, or windy it might be!

Date:

Astronomy

Oct. 23, 2011 Rise Set
Actual Time 7:31 AM EDT 6:19 PM EDT
Civil Twilight 7:03 AM EDT 6:47 PM EDT
Nautical Twilight 6:31 AM EDT 7:19 PM EDT
Astronomical Twilight 5:59 AM EDT 7:51 PM EDT
Moon 3:34 AM EDT (10/23) 4:10 PM EDT (10/23)
Length of Visible Light 11h 44m
Length of Day
10h 48m
Waning Crescent, 14% of the Moon is Illuminated
Oct 23
Waning Crescent
Oct 26
New
Nov 2
First Quarter
Nov 10
Full
Nov 18
Last Quarter

Hourly Weather History & Observations

Time (EDT) Temp. Windchill Dew Point Humidity Pressure Visibility Wind Dir Wind Speed Gust Speed Precip Events Conditions
12:15 AM 37.4 °F - 37.4 °F 100% 30.10 in 7.0 mi Calm Calm - N/A   Clear
12:55 AM 41.0 °F 39.0 °F 39.2 °F 93% 30.10 in 10.0 mi SW 3.5 mph - N/A   Clear
1:15 AM 39.2 °F - 39.2 °F 100% 30.10 in 10.0 mi Calm Calm - N/A   Clear
1:35 AM 39.2 °F 37.0 °F 37.4 °F 93% 30.10 in 7.0 mi West 3.5 mph - N/A   Clear
1:55 AM 37.4 °F - 37.4 °F 100% 30.10 in 7.0 mi Calm Calm - N/A   Scattered Clouds
2:15 AM 37.4 °F - 37.4 °F 100% 30.10 in 5.0 mi Calm Calm - N/A   Scattered Clouds
2:35 AM 37.4 °F - 37.4 °F 100% 30.10 in 3.0 mi Calm Calm - N/A   Mostly Cloudy
2:55 AM 37.4 °F - 37.4 °F 100% 30.10 in 3.0 mi Calm Calm - N/A   Scattered Clouds
3:15 AM 37.4 °F - 37.4 °F 100% 30.10 in 7.0 mi Calm Calm - N/A   Clear
3:35 AM 35.6 °F - 35.6 °F 100% 30.09 in 4.0 mi Calm Calm - N/A   Clear
3:55 AM 35.6 °F - 35.6 °F 100% 30.09 in 3.0 mi Calm Calm - N/A   Clear
4:15 AM 35.6 °F - 35.6 °F 100% 30.09 in 2.0 mi Calm Calm - N/A   Clear
4:35 AM 35.6 °F - 35.6 °F 100% 30.09 in 0.5 mi Calm Calm - N/A Fog Fog
4:55 AM 33.8 °F - 33.8 °F 100% 30.09 in 0.5 mi Calm Calm - N/A Fog Fog
5:15 AM 33.8 °F - 33.8 °F 100% 30.09 in 1.0 mi Calm Calm - N/A   Mist
5:35 AM 35.6 °F - 35.6 °F 100% 30.09 in 2.5 mi Calm Calm - N/A   Clear
5:55 AM 33.8 °F - 33.8 °F 100% 30.09 in 0.5 mi Calm Calm - N/A Fog Fog
5:58 AM 33.8 °F - 33.8 °F 100% 30.09 in 3.0 mi Calm Calm - N/A   Scattered Clouds
6:24 AM 32.0 °F - 32.0 °F 100% 30.10 in 1.0 mi Calm Calm - N/A Fog Fog
6:53 AM 32.0 °F - 32.0 °F 100% 30.11 in 0.5 mi Calm Calm - N/A Fog Fog
7:19 AM 32.0 °F - 32.0 °F 100% 30.11 in 2.0 mi Calm Calm - N/A Fog Patches of Fog
7:53 AM 32.0 °F - 32.0 °F 100% 30.12 in 0.5 mi Calm Calm - N/A Fog Fog
8:10 AM 32.0 °F - 32.0 °F 100% 30.12 in 0.1 mi Calm Calm - N/A Fog Fog
8:35 AM 32.0 °F - 32.0 °F 100% 30.13 in 0.8 mi Calm Calm - N/A Fog Patches of Fog
8:53 AM 33.8 °F - 33.8 °F 100% 30.13 in 3.0 mi Calm Calm - N/A   Partly Cloudy
9:53 AM 37.4 °F - 37.4 °F 100% 30.14 in 5.0 mi Calm Calm - N/A   Scattered Clouds
10:53 AM 42.8 °F - 42.8 °F 100% 30.13 in 7.0 mi Calm Calm - N/A   Clear
11:53 AM 50.0 °F - 39.2 °F 66% 30.14 in 10.0 mi Calm Calm - N/A   Clear
12:53 PM 53.6 °F - 39.2 °F 58% 30.11 in 10.0 mi Calm Calm - N/A   Clear
1:53 PM 55.4 °F - 39.2 °F 54% 30.08 in 10.0 mi SSW 6.9 mph - N/A   Clear
2:58 PM 57.2 °F - 35.6 °F 44% 30.07 in 10.0 mi Calm Calm - N/A   Scattered Clouds
3:58 PM 59.0 °F - 37.4 °F 45% 30.06 in 10.0 mi SSE 6.9 mph - N/A   Clear
4:53 PM 57.2 °F - 37.4 °F 48% 30.05 in 10.0 mi South 3.5 mph - N/A   Clear
5:53 PM 55.4 °F - 37.4 °F 51% 30.05 in 10.0 mi South 3.5 mph - N/A   Clear
6:53 PM 53.6 °F - 37.4 °F 54% 30.06 in 10.0 mi Calm Calm - N/A   Clear
7:53 PM 51.8 °F - 37.4 °F 58% 30.07 in 10.0 mi Calm Calm - N/A   Clear
8:53 PM 51.8 °F - 37.4 °F 58% 30.09 in 10.0 mi West 3.5 mph - N/A   Clear
9:53 PM 50.0 °F - 37.4 °F 62% 30.08 in 10.0 mi West 3.5 mph - N/A   Clear
10:15 PM 50.0 °F - 37.4 °F 62% 30.08 in 10.0 mi West 3.5 mph - N/A   Clear
10:35 PM 50.0 °F - 37.4 °F 62% 30.08 in 10.0 mi West 3.5 mph - N/A   Clear
10:55 PM 50.0 °F - 37.4 °F 62% 30.08 in 10.0 mi Calm Calm - N/A   Clear
11:35 PM 50.0 °F - 37.4 °F 62% 30.08 in 10.0 mi WSW 3.5 mph - N/A   Scattered Clouds
11:55 PM 48.2 °F - 39.2 °F 71% 30.08 in 10.0 mi Calm Calm - N/A   Scattered Clouds